Location: Unspecified
(50.7693°N, 0.0000°E)
Time: 09:56:21
(UTC+00:00)

Vanguard 2 - Pass Details

Date: 23 June 2019
Orbit: 553 x 2938 km, 32.9° (Epoch: 19 July)

Event Time Altitude Azimuth Distance (km) Brightness Sun altitude
Rises 10:16:52 0° 239° (WSW) 3,563 10.9 55.9°
Reaches altitude 10° 10:19:41 10° 224° (SW) 2,905 10.6 56.2°
Maximum altitude 10:25:03 22° 176° (S) 2,645 11.1 56.8°
Drops below altitude 10° 10:32:31 10° 131° (SE) 4,212 12.0 57.6°
Sets 10:37:45 0° 120° (ESE) 5,675 12.4 58.1°
